Date,TemperatureHighF,TemperatureAvgF,TemperatureLowF,DewpointHighF,DewpointAvgF,DewpointLowF,HumidityHigh,HumidityAvg,HumidityLow,PressureMaxIn,PressureMinIn,WindSpeedMaxMPH,WindSpeedAvgMPH,GustSpeedMaxMPH,PrecipitationSumIn
2012-1-1,37,21,6,-4,-9,-14,55,28,11,0.00,40.00,8,5,12,0.00
2012-1-2,41,26,16,13,7,-4,64,43,29,0.00,40.00,10,6,17,0.00
2012-1-3,42,30,22,12,8,6,54,41,24,0.00,40.00,16,6,31,0.00
2012-1-4,37,25,12,8,5,3,66,44,24,0.00,40.00,9,6,13,0.00
2012-1-5,45,30,20,13,9,5,59,42,27,0.00,40.00,10,6,13,0.00
2012-1-6,40,28,19,14,10,7,64,46,29,0.00,40.00,12,6,21,0.00
2012-1-7,27,22,18,24,17,8,93,83,52,0.00,40.00,9,6,17,0.00
2012-1-8,22,15,8,16,11,4,90,83,78,0.00,40.00,8,4,11,0.16
2012-1-9,32,18,6,22,12,1,89,78,67,0.00,40.00,8,4,13,0.01
2012-1-10,34,24,17,22,18,14,90,75,60,0.00,40.00,9,5,17,0.01
2012-1-11,22,14,3,18,6,-13,90,71,45,0.00,40.00,16,7,25,0.01
2012-1-12,25,8,-6,-4,-9,-14,68,47,22,0.00,40.00,9,5,16,0.02
2012-1-13,28,14,4,0,-4,-7,69,46,21,0.00,40.00,14,6,25,0.02
2012-1-14,37,22,9,7,3,-2,63,46,26,0.00,40.00,12,6,19,0.00
2012-1-15,43,28,18,7,3,-1,53,36,19,0.00,40.00,13,5,24,0.00
2012-1-16,27,20,5,23,13,-1,93,76,41,0.00,40.00,24,7,48,0.01
2012-1-17,13,5,-6,7,-2,-12,81,75,69,0.00,40.00,11,5,19,0.01
2012-1-18,30,22,10,16,6,0,68,50,38,0.00,40.00,22,15,39,0.01
2012-1-19,43,34,27,26,22,15,72,60,50,0.00,40.00,16,7,34,0.05
2012-1-20,33,29,20,27,21,13,93,73,50,0.00,40.00,20,9,35,0.02
2012-1-21,38,26,19,31,20,12,97,77,45,0.00,40.00,15,7,34,0.01
2012-1-22,26,19,11,25,16,5,96,86,71,0.00,40.00,21,10,29,0.01
2012-1-23,28,18,6,14,8,1,84,67,39,0.00,40.00,12,6,17,0.05
2012-1-24,32,22,17,19,15,12,92,75,45,0.00,40.00,11,5,18,0.02
2012-1-25,33,21,8,13,10,3,87,64,40,0.00,40.00,12,5,15,0.02
2012-1-26,34,25,17,25,17,12,95,73,44,0.00,40.00,12,6,22,0.01
2012-1-27,25,18,5,24,11,-4,94,75,50,0.00,40.00,12,8,26,0.01
2012-1-28,28,13,-2,0,-5,-8,75,49,24,0.00,40.00,11,6,20,0.08
2012-1-29,37,22,10,13,6,-2,67,51,30,0.00,40.00,9,4,13,0.04
2012-1-30,39,26,17,13,10,7,74,51,33,0.00,40.00,13,7,22,0.01
2012-1-31,37,25,14,12,6,2,71,46,27,0.00,40.00,12,6,21,0.00
2012-2-1,39,24,14,10,4,-1,69,46,24,0.00,40.00,13,6,19,0.00
2012-2-2,33,24,18,19,10,3,92,55,42,0.00,40.00,11,6,20,0.00
2012-2-3,30,18,12,15,9,2,91,68,36,0.00,40.00,9,4,12,0.00
2012-2-4,29,17,6,4,1,-4,72,50,31,0.00,40.00,11,8,16,0.00
2012-2-5,31,18,5,11,3,-3,72,55,32,0.00,40.00,10,7,15,0.00
2012-2-6,25,16,8,11,6,1,86,64,44,0.00,40.00,11,6,19,0.00
2012-2-7,32,16,5,7,4,-1,84,61,34,0.00,40.00,11,6,17,0.00
2012-2-8,31,19,8,20,6,-3,93,60,34,0.00,40.00,12,6,22,0.00
2012-2-9,25,21,14,21,18,10,92,86,79,0.00,40.00,11,7,20,0.04
2012-2-10,30,21,11,22,14,7,92,76,53,0.00,40.00,13,7,21,0.05
2012-2-11,41,29,21,22,18,14,90,66,38,0.00,40.00,13,7,21,0.02
2012-2-12,43,27,21,28,18,12,93,70,37,0.00,40.00,13,7,24,0.01
2012-2-13,27,23,19,23,20,14,93,89,77,0.00,40.00,12,7,24,0.05
2012-2-14,30,21,14,22,17,11,93,83,63,0.00,40.00,12,5,22,0.07
2012-2-15,31,21,12,15,11,6,86,66,41,0.00,40.00,13,6,19,0.09
2012-2-16,32,21,13,15,10,5,86,65,31,0.00,40.00,16,6,26,0.02
2012-2-17,31,18,7,16,8,2,90,67,29,0.00,40.00,13,6,21,0.01
2012-2-18,35,19,5,13,2,-7,87,53,18,0.00,40.00,13,6,21,0.01
2012-2-19,39,21,11,20,8,-3,92,59,25,0.00,40.00,15,7,29,0.01
2012-2-20,20,12,8,10,4,-5,86,70,42,0.00,40.00,17,9,27,0.01
2012-2-21,25,19,10,18,11,2,88,71,58,0.00,40.00,21,11,33,0.01
2012-2-22,34,29,22,23,21,18,90,71,60,0.00,40.00,26,12,50,0.02
2012-2-23,32,18,9,21,6,-5,89,61,32,0.00,40.00,31,16,52,0.02
2012-2-24,30,16,2,3,-2,-6,69,46,23,0.00,40.00,13,7,22,0.00
2012-2-25,41,25,11,9,2,-4,71,42,17,0.00,40.00,31,13,55,0.00
2012-2-26,25,15,8,4,-11,-18,68,33,16,0.00,40.00,22,12,35,0.00
2012-2-27,43,27,7,12,1,-21,45,32,18,0.00,40.00,15,10,30,0.00
2012-2-28,31,23,17,24,18,9,94,79,45,0.00,40.00,24,14,39,0.01
2012-2-29,29,20,12,18,12,7,87,70,51,0.00,40.00,19,7,31,0.05
2012-3-1,20,17,11,18,14,6,91,86,77,0.00,40.00,13,7,22,0.03
2012-3-2,17,8,0,9,2,-5,85,75,62,0.00,40.00,15,6,26,0.01
2012-3-3,23,12,2,12,4,-4,80,71,55,0.00,40.00,12,7,21,0.01
2012-3-4,41,26,16,17,13,10,79,61,34,0.00,40.00,9,6,13,0.14
2012-3-5,45,30,15,13,10,6,77,46,21,0.00,40.00,17,9,28,0.01
2012-3-6,50,34,21,9,5,-5,55,33,10,0.00,40.00,13,6,31,0.01
2012-3-7,41,32,25,22,12,0,80,45,17,0.00,40.00,18,7,31,0.00
2012-3-8,40,27,14,17,10,4,85,53,22,0.00,40.00,13,6,19,0.00
2012-3-9,45,30,15,10,5,1,56,37,17,0.00,40.00,11,7,18,0.00
2012-3-10,51,35,20,17,5,-100,56,31,16,0.00,40.00,12,7,21,0.00
2012-3-11,45,34,23,17,11,7,63,41,21,0.00,40.00,18,8,29,0.00
2012-3-12,48,37,28,11,9,8,46,32,21,0.00,40.00,14,7,24,0.00
2012-3-13,51,38,26,13,4,-3,45,28,11,0.00,40.00,22,9,37,0.00
2012-3-14,53,38,25,9,0,-7,35,21,8,0.00,40.00,15,6,26,0.00
2012-3-15,55,39,27,19,11,3,54,32,17,0.00,40.00,12,7,20,0.00
2012-3-16,54,41,28,21,13,7,59,36,15,0.00,40.00,19,8,35,0.00
2012-3-17,57,43,31,13,8,-1,43,27,9,0.00,40.00,18,8,31,0.00
2012-3-18,52,36,20,28,14,6,94,47,19,0.00,40.00,19,8,33,0.00
2012-3-19,26,18,10,17,11,4,89,78,39,0.00,40.00,13,6,33,0.04
2012-3-20,33,22,10,13,6,-100,88,58,26,0.00,40.00,11,6,19,0.03
2012-3-21,36,24,19,19,12,7,67,60,49,0.00,40.00,14,5,21,0.01
2012-3-22,53,30,33,21,-22,-100,50,21,13,0.00,40.00,15,-307,22,0.00
2012-3-23,61,42,27,18,2,-100,59,27,12,0.00,40.00,16,-44,25,0.00
2012-3-24,60,44,30,18,13,7,48,31,15,0.00,40.00,11,6,22,0.00
2012-3-25,61,48,34,19,13,6,47,28,12,0.00,40.00,12,8,23,0.00
2012-3-26,56,46,33,16,7,-4,32,22,9,0.00,40.00,26,13,53,0.00
2012-3-27,51,38,26,14,8,2,47,30,14,0.00,40.00,14,7,28,0.00
2012-3-28,56,42,29,15,10,4,49,29,12,0.00,40.00,18,7,29,0.00
2012-3-29,53,42,34,22,13,6,56,31,19,0.00,40.00,15,8,26,0.00
2012-3-30,56,46,35,20,16,13,43,31,22,0.00,40.00,15,8,25,0.00
2012-3-31,64,44,32,24,19,7,64,40,14,0.00,40.00,11,6,21,0.00
2012-4-1,64,45,36,17,11,2,36,26,8,0.00,40.00,13,6,30,0.00
2012-4-2,46,33,24,25,20,15,90,62,32,0.00,40.00,19,8,34,0.00
2012-4-3,43,32,24,28,22,16,80,69,42,0.00,40.00,13,7,22,0.00
2012-4-4,55,39,26,24,18,7,82,50,14,0.00,40.00,17,7,27,0.00
2012-4-5,57,39,28,18,12,-6,61,38,8,0.00,40.00,12,7,23,0.00
2012-4-6,50,39,25,16,4,-11,34,24,8,0.00,40.00,23,12,41,0.00
2012-4-7,47,27,16,4,-2,-17,49,31,6,0.00,40.00,16,6,27,0.00
2012-4-8,53,29,24,4,-1,-16,36,28,5,0.00,40.00,14,7,24,0.00
2012-4-9,60,36,27,10,3,-6,34,27,7,0.00,40.00,15,7,28,0.00
2012-4-10,62,40,31,13,9,5,39,28,10,0.00,40.00,9,6,22,0.00
2012-4-11,66,48,39,33,22,13,64,39,14,0.00,40.00,19,9,34,0.01
2012-4-12,46,36,26,31,19,12,94,52,27,0.00,40.00,19,11,34,0.01
2012-4-13,41,32,23,23,18,10,93,62,28,0.00,40.00,12,6,21,0.01
2012-4-14,37,30,26,28,24,18,96,81,46,0.00,40.00,14,7,21,0.01
2012-4-15,32,26,23,28,24,21,94,92,85,0.00,40.00,15,9,24,0.19
2012-4-16,38,29,23,26,22,16,94,76,45,0.00,40.00,13,8,25,0.15
2012-4-17,51,34,20,23,18,14,81,56,27,0.00,40.00,13,7,30,0.09
2012-4-18,51,40,28,33,22,16,90,53,26,0.00,40.00,20,10,36,0.03
2012-4-19,44,34,29,36,31,26,98,89,54,0.00,40.00,12,5,18,0.54
2012-4-20,50,40,31,30,26,24,89,62,37,0.00,40.00,15,7,22,0.05
2012-4-21,61,46,33,30,24,17,80,46,20,0.00,40.00,15,6,29,0.01
2012-4-22,65,49,34,28,22,18,65,39,17,0.00,40.00,18,7,30,0.00
2012-4-23,68,52,35,25,20,14,59,33,12,0.00,40.00,17,9,26,0.00
2012-4-24,67,52,37,26,21,15,57,34,14,0.00,40.00,19,9,33,0.00
2012-4-25,63,51,39,30,17,12,44,28,14,0.00,40.00,15,6,27,0.00
2012-4-26,62,50,37,36,30,23,96,50,22,0.00,40.00,13,6,38,0.14
2012-4-27,43,38,31,36,26,13,97,67,29,0.00,40.00,25,14,43,0.36
2012-4-28,46,34,23,13,10,4,61,38,21,0.00,40.00,13,9,27,0.01
2012-4-29,51,39,24,15,10,3,61,33,16,0.00,40.00,20,9,34,0.00
2012-4-30,58,43,26,18,10,6,56,30,13,0.00,40.00,19,10,35,0.00
2012-5-1,57,46,37,26,19,9,53,34,25,0.00,40.00,17,9,34,0.00
2012-5-2,57,47,37,33,25,21,73,45,26,0.00,40.00,16,8,27,0.00
2012-5-3,65,52,31,32,22,13,85,39,13,0.00,40.00,17,9,28,0.00
2012-5-4,68,52,38,24,14,4,43,25,9,0.00,40.00,15,7,29,0.00
2012-5-5,64,50,41,22,14,4,44,26,9,0.00,40.00,21,8,33,0.00
2012-5-6,57,41,30,31,23,15,70,49,22,0.00,40.00,15,6,23,0.00
2012-5-7,47,38,32,33,29,22,96,72,39,0.00,40.00,17,9,29,0.09
2012-5-8,56,39,26,32,24,17,94,61,22,0.00,40.00,13,6,22,0.04
2012-5-9,63,44,27,21,16,3,64,36,9,0.00,40.00,11,7,22,0.01
2012-5-10,66,52,35,22,16,6,46,27,9,0.00,40.00,13,7,24,0.00
2012-5-11,56,44,35,37,28,22,95,57,32,0.00,40.00,15,6,26,0.18
2012-5-12,60,44,32,34,28,19,97,61,21,0.00,40.00,17,8,27,0.18
2012-5-13,55,42,32,30,25,17,75,54,25,0.00,40.00,11,7,20,0.00
2012-5-14,65,46,27,21,13,-1,66,34,7,0.00,40.00,12,6,22,0.00
2012-5-15,70,54,36,20,13,6,42,23,8,0.00,40.00,9,7,16,0.00
2012-5-16,61,50,41,34,25,17,72,40,22,0.00,40.00,15,8,32,0.00
2012-5-17,64,49,34,37,28,20,95,53,18,0.00,40.00,19,9,30,0.02
2012-5-18,63,52,42,28,22,16,54,33,16,0.00,40.00,15,8,37,0.00
2012-5-19,51,41,34,37,33,30,97,76,49,0.00,40.00,12,5,22,0.15
2012-5-20,63,46,30,33,26,21,91,53,21,0.00,40.00,14,8,24,0.01
2012-5-21,69,53,37,33,24,20,65,37,16,0.00,40.00,13,8,27,0.00
2012-5-22,73,58,41,34,19,6,51,26,10,0.00,40.00,18,10,37,0.00
2012-5-23,60,48,32,38,26,9,97,50,13,0.00,40.00,15,8,25,0.25
2012-5-24,52,39,30,31,25,13,97,63,21,0.00,40.00,14,6,27,0.23
2012-5-25,71,57,35,30,23,13,62,30,14,0.00,40.00,17,10,40,0.13
2012-5-26,73,57,45,23,16,-1,36,22,9,0.00,40.00,19,9,47,0.00
2012-5-27,47,41,31,13,4,-5,37,22,14,0.00,40.00,22,12,39,0.00
2012-5-28,57,44,30,18,13,9,55,31,16,0.00,40.00,15,8,33,0.00
2012-5-29,65,49,29,21,15,11,54,28,14,0.00,40.00,16,8,29,0.00
2012-5-30,65,53,36,24,18,14,44,27,14,0.00,40.00,19,8,34,0.00
2012-5-31,66,53,36,31,28,21,66,39,23,0.00,40.00,18,6,27,0.00
2012-6-1,66,57,46,35,31,28,58,39,26,0.00,40.00,12,6,26,0.00
2012-6-2,67,51,41,41,35,30,79,56,32,0.00,40.00,20,8,41,0.05
2012-6-3,74,56,40,41,33,23,87,49,15,0.00,40.00,14,8,36,0.04
2012-6-4,74,60,47,36,29,19,51,35,14,0.00,40.00,15,8,30,0.00
2012-6-5,69,58,45,39,34,29,67,43,26,0.00,40.00,15,9,34,0.00
2012-6-6,72,58,43,36,28,19,64,37,14,0.00,40.00,11,7,23,0.00
2012-6-7,71,57,41,35,23,16,51,29,12,0.00,40.00,17,9,29,0.00
2012-6-8,76,60,39,30,20,12,54,26,11,0.00,40.00,15,8,28,0.00
2012-6-9,74,61,45,31,17,12,35,19,10,0.00,40.00,19,9,36,0.00
2012-6-10,59,50,36,19,8,-13,43,21,6,0.00,40.00,17,10,33,0.00
2012-6-11,66,49,27,16,9,4,55,24,9,0.00,40.00,14,7,25,0.00
2012-6-12,69,55,38,25,12,2,42,21,8,0.00,40.00,17,9,35,0.00
2012-6-13,75,59,38,27,13,7,37,18,8,0.00,40.00,14,8,30,0.00
2012-6-14,76,59,40,32,18,10,45,23,8,0.00,40.00,12,7,23,0.00
2012-6-15,76,63,50,35,21,1,42,24,6,0.00,40.00,16,9,34,0.00
2012-6-16,74,59,43,33,27,23,55,32,16,0.00,40.00,13,7,28,0.00
2012-6-17,75,62,43,38,25,19,57,30,13,0.00,40.00,21,11,36,0.00
2012-6-18,77,65,50,29,17,4,32,17,7,0.00,40.00,18,8,29,0.00
2012-6-19,78,64,46,28,18,13,34,19,9,0.00,40.00,16,9,29,0.00
2012-6-20,69,57,42,26,14,2,42,21,7,0.00,40.00,18,8,34,0.00
2012-6-21,78,63,45,37,22,4,58,27,7,0.00,40.00,15,10,27,0.00
2012-6-22,80,66,48,35,20,13,38,20,8,0.00,40.00,18,10,36,0.00
2012-6-23,82,68,52,34,21,15,38,19,9,0.00,40.00,18,9,35,0.00
2012-6-24,80,64,52,39,29,21,43,28,15,0.00,40.00,11,6,26,0.00
2012-6-25,81,67,49,44,30,20,54,30,11,0.00,40.00,11,6,20,0.00
2012-6-26,78,66,52,40,33,27,45,31,20,0.00,40.00,16,7,31,0.00
2012-6-27,77,65,54,45,39,34,59,39,23,0.00,40.00,17,8,35,0.00
2012-6-28,77,60,49,44,40,38,66,49,27,0.00,40.00,13,7,30,0.03
2012-6-29,80,64,49,42,33,19,65,37,11,0.00,40.00,14,8,38,0.01
2012-6-30,80,68,48,37,27,17,46,25,10,0.00,40.00,16,8,29,0.00
2012-7-1,83,69,51,35,24,18,37,21,9,0.00,40.00,11,6,22,0.00
2012-7-2,84,64,52,47,33,25,66,35,15,0.00,40.00,12,6,49,0.02
2012-7-3,79,63,49,47,40,31,75,49,18,0.00,40.00,16,7,28,0.08
2012-7-4,77,59,49,49,43,33,88,58,21,0.00,40.00,15,6,32,0.09
2012-7-5,77,60,50,50,46,41,96,65,31,0.00,40.00,21,8,36,0.77
2012-7-6,65,54,46,53,49,45,97,86,53,0.00,40.00,10,5,16,0.90
2012-7-7,66,55,49,51,49,45,97,81,53,0.00,40.00,13,6,26,0.59
2012-7-8,69,56,47,51,47,44,96,73,44,0.00,40.00,17,6,30,0.18
2012-7-9,76,61,47,48,42,31,84,55,20,0.00,40.00,11,7,20,0.14
2012-7-10,79,64,48,44,37,27,78,44,15,0.00,40.00,10,6,21,0.00
2012-7-11,78,63,51,46,41,34,76,49,21,0.00,40.00,13,7,25,0.00
2012-7-12,73,62,48,42,37,31,69,43,21,0.00,40.00,14,6,31,0.00
2012-7-13,80,66,53,42,35,29,56,36,16,0.00,40.00,14,7,23,0.00
2012-7-14,70,57,51,50,43,34,96,62,41,0.00,40.00,11,5,23,0.32
2012-7-15,72,55,47,51,48,44,96,78,40,0.00,40.00,14,7,43,0.15
2012-7-16,68,54,45,51,46,44,96,77,49,0.00,40.00,11,5,29,0.29
2012-7-17,72,57,42,50,41,36,97,62,27,0.00,40.00,12,7,25,0.03
2012-7-18,76,60,46,45,40,37,75,51,25,0.00,40.00,10,8,24,0.01
2012-7-19,77,60,48,51,43,38,80,56,27,0.00,40.00,14,6,27,0.03
2012-7-20,78,62,47,48,43,37,78,54,26,0.00,40.00,16,7,24,0.11
2012-7-21,80,61,49,50,43,35,93,59,20,0.00,40.00,11,7,27,0.34
2012-7-22,71,56,45,52,47,43,96,72,38,0.00,40.00,10,6,20,0.24
2012-7-23,75,61,51,49,44,41,81,55,31,0.00,40.00,11,6,17,0.02
2012-7-24,73,58,45,51,45,40,96,64,36,0.00,40.00,11,6,17,0.50
2012-7-25,70,58,49,52,46,39,97,70,38,0.00,40.00,13,6,23,0.44
2012-7-26,75,61,47,45,37,23,75,47,15,0.00,40.00,12,6,19,0.01
2012-7-27,72,60,51,50,43,39,96,58,36,0.00,40.00,13,8,22,0.29
2012-7-28,70,58,45,52,47,44,96,70,39,0.00,40.00,12,6,18,0.25
2012-7-29,70,60,53,58,50,45,88,70,47,0.00,40.00,11,5,19,0.45
2012-7-30,71,58,49,53,48,44,93,71,43,0.00,40.00,9,5,24,0.06
2012-7-31,76,62,49,50,44,38,84,55,26,0.00,40.00,18,8,28,0.01
2012-8-1,70,57,47,49,46,44,91,69,40,0.00,40.00,13,7,23,0.05
2012-8-2,72,62,51,50,42,34,81,49,25,0.00,40.00,15,8,27,0.00
2012-8-3,74,59,44,43,37,31,77,48,21,0.00,40.00,16,8,27,0.00
2012-8-4,76,60,45,39,31,25,62,37,16,0.00,40.00,12,6,22,0.00
2012-8-5,79,64,50,42,33,23,64,37,13,0.00,40.00,10,6,23,0.00
2012-8-6,76,61,51,50,40,31,94,49,28,0.00,40.00,12,8,28,0.16
2012-8-7,76,60,45,51,40,22,94,57,13,0.00,40.00,13,7,21,0.16
2012-8-8,80,64,46,40,32,23,65,36,15,0.00,40.00,10,7,18,0.00
2012-8-9,80,66,53,38,32,27,45,29,14,0.00,40.00,13,8,24,0.00
2012-8-10,78,62,51,49,40,35,79,47,21,0.00,40.00,13,7,25,0.02
2012-8-11,72,57,48,49,44,33,87,65,25,0.00,40.00,16,8,39,0.39
2012-8-12,76,60,43,45,36,28,87,49,17,0.00,40.00,14,7,25,0.20
2012-8-13,60,50,44,48,42,36,96,76,42,0.00,40.00,15,7,25,0.84
2012-8-14,70,54,41,50,41,34,97,68,27,0.00,40.00,11,7,19,0.02
2012-8-15,72,57,43,45,37,32,80,53,25,0.00,40.00,12,5,19,0.00
2012-8-16,75,60,49,42,37,32,63,45,21,0.00,40.00,12,7,23,0.01
2012-8-17,74,59,46,42,36,29,68,46,22,0.00,40.00,16,8,28,0.02
2012-8-18,74,59,44,43,31,17,71,42,14,0.00,40.00,13,7,25,0.02
2012-8-19,75,60,42,36,27,21,64,32,14,0.00,40.00,14,7,24,0.00
2012-8-20,63,54,47,46,36,26,76,52,35,0.00,40.00,9,5,17,0.01
2012-8-21,76,60,43,44,34,25,82,46,16,0.00,40.00,10,6,19,0.01
2012-8-22,68,57,51,50,41,31,95,57,38,0.00,40.00,12,6,19,0.04
2012-8-23,66,55,50,53,49,43,98,82,49,0.00,40.00,12,5,19,0.18
2012-8-24,64,52,46,50,46,40,96,80,46,0.00,40.00,8,4,20,0.27
2012-8-25,72,56,42,44,32,17,91,50,14,0.00,40.00,11,6,22,0.08
2012-8-26,76,60,44,40,33,25,70,41,17,0.00,40.00,9,6,22,0.00
2012-8-27,72,60,53,46,39,32,67,47,33,0.00,40.00,16,8,25,0.00
2012-8-28,79,62,49,45,41,36,71,50,22,0.00,40.00,14,8,25,0.00
2012-8-29,79,61,47,45,40,37,76,52,22,0.00,40.00,13,8,25,0.00
2012-8-30,67,58,52,49,42,37,72,55,35,0.00,40.00,13,8,28,0.03
2012-8-31,75,57,47,49,41,32,88,57,27,0.00,40.00,12,7,29,0.02
2012-9-1,71,57,47,47,42,36,92,60,35,0.00,40.00,18,8,31,0.02
2012-9-2,71,56,46,48,42,38,87,61,34,0.00,40.00,12,6,33,0.04
2012-9-3,70,56,47,44,38,32,75,55,24,0.00,40.00,11,6,35,0.01
2012-9-4,72,57,43,37,29,19,73,42,14,0.00,40.00,18,8,31,0.01
2012-9-5,73,56,38,26,19,14,50,27,11,0.00,40.00,13,7,25,0.00
2012-9-6,73,57,40,28,21,15,41,27,14,0.00,40.00,14,7,23,0.00
2012-9-7,64,54,45,47,38,24,95,60,26,0.00,40.00,11,5,21,0.19
2012-9-8,70,54,37,37,28,4,83,44,10,0.00,40.00,12,8,18,0.01
2012-9-9,74,58,43,35,28,23,63,35,16,0.00,40.00,13,8,23,0.00
2012-9-10,72,59,44,36,30,27,58,35,19,0.00,40.00,13,7,23,0.00
2012-9-11,64,52,46,48,38,29,99,62,37,0.00,40.00,12,6,28,0.51
2012-9-12,61,50,44,48,40,22,100,74,22,0.00,40.00,11,4,19,0.35
2012-9-13,66,49,32,34,27,17,86,50,15,0.00,40.00,9,6,18,0.01
2012-9-14,69,52,37,31,23,6,66,37,11,0.00,40.00,13,7,20,0.00
2012-9-15,71,53,37,28,21,16,55,32,12,0.00,40.00,14,7,24,0.00
2012-9-16,69,53,37,24,17,14,42,26,13,0.00,40.00,14,6,28,0.00
2012-9-17,59,48,40,40,28,19,90,49,28,0.00,40.00,16,6,24,0.07
2012-9-18,65,48,32,29,23,20,70,41,18,0.00,40.00,14,7,23,0.01
2012-9-19,69,53,35,25,21,14,55,32,12,0.00,40.00,12,6,25,0.00
2012-9-20,69,52,35,25,20,14,56,32,12,0.00,40.00,15,6,23,0.00
2012-9-21,70,53,37,27,20,16,49,31,13,0.00,40.00,13,6,21,0.00
2012-9-22,71,55,42,29,20,13,49,29,11,0.00,40.00,14,7,28,0.00
2012-9-23,70,53,39,29,22,17,41,31,17,0.00,40.00,18,7,28,0.00
2012-9-24,61,50,42,43,36,27,99,61,31,0.00,40.00,14,6,25,0.09
2012-9-25,55,44,36,39,36,34,98,77,47,0.00,40.00,12,5,20,0.62
2012-9-26,56,42,34,39,36,31,100,79,43,0.00,40.00,11,5,17,0.62
2012-9-27,53,43,37,40,35,33,98,77,47,0.00,40.00,13,5,20,0.05
2012-9-28,62,45,32,35,31,25,95,63,27,0.00,40.00,12,6,20,0.01
2012-9-29,65,50,37,35,30,24,80,50,23,0.00,40.00,15,7,22,0.00
2012-9-30,58,48,39,33,29,25,68,49,30,0.00,40.00,11,5,20,0.00
2012-10-1,64,49,37,32,27,19,68,45,19,0.00,40.00,15,7,24,0.00
2012-10-2,66,50,34,30,24,20,68,41,19,0.00,40.00,13,7,21,0.00
2012-10-3,64,50,37,26,21,12,53,33,17,0.00,40.00,24,8,42,0.00
2012-10-4,60,50,38,23,15,8,34,25,18,0.00,40.00,24,9,37,0.00
2012-10-5,54,45,37,34,15,4,87,34,13,0.00,40.00,22,11,40,0.02
2012-10-6,45,35,27,9,2,-4,35,25,14,0.00,40.00,16,7,27,0.01
2012-10-7,48,34,24,4,-1,-6,40,24,11,0.00,40.00,15,7,25,0.00
2012-10-8,56,39,24,5,-1,-12,35,21,6,0.00,40.00,21,9,37,0.00
2012-10-9,59,47,37,16,12,3,31,24,16,0.00,40.00,23,10,38,0.00
2012-10-10,62,48,30,24,19,14,53,34,20,0.00,40.00,19,9,35,0.00
2012-10-11,66,49,35,29,23,17,59,40,19,0.00,40.00,12,7,24,0.00
2012-10-12,55,44,32,42,32,27,100,67,40,0.00,40.00,12,8,38,0.24
2012-10-13,34,31,28,34,31,27,100,99,96,0.00,40.00,11,6,26,0.29
2012-10-14,50,39,33,38,33,28,100,82,45,0.00,40.00,8,5,15,0.33
2012-10-15,57,41,28,32,26,19,96,62,25,0.00,40.00,17,8,30,0.01
2012-10-16,57,44,31,35,28,24,97,58,31,0.00,40.00,22,10,45,0.10
2012-10-17,42,34,24,33,14,-1,100,50,16,0.00,40.00,23,14,36,0.15
2012-10-18,49,36,25,11,9,5,42,32,21,0.00,40.00,18,7,30,0.01
2012-10-19,58,41,26,21,15,9,61,38,14,0.00,40.00,18,8,29,0.00
2012-10-20,62,45,31,21,16,12,55,34,16,0.00,40.00,15,7,29,0.00
2012-10-21,60,46,33,21,17,13,46,32,19,0.00,40.00,17,7,27,0.00
2012-10-22,60,44,32,27,20,15,67,42,18,0.00,40.00,22,8,38,0.00
2012-10-23,56,48,41,23,15,6,42,28,14,0.00,40.00,23,12,39,0.00
2012-10-24,49,40,23,31,20,10,99,53,23,0.00,40.00,16,7,32,0.00
2012-10-25,27,22,19,23,20,16,95,90,78,0.00,40.00,14,8,29,0.14
2012-10-26,30,21,13,16,12,9,92,72,45,0.00,40.00,10,5,18,0.03
2012-10-27,37,27,18,16,12,9,76,54,33,0.00,40.00,15,7,32,0.02
2012-10-28,48,36,27,24,20,16,73,53,37,0.00,40.00,14,6,23,0.00
2012-10-29,53,39,29,27,23,19,81,56,26,0.00,40.00,16,7,26,0.00
2012-10-30,54,39,28,27,22,16,79,53,22,0.00,40.00,13,6,22,0.00
2012-10-31,55,40,27,23,20,17,73,49,23,0.00,40.00,12,7,18,0.00
2012-11-1,53,40,31,21,17,12,62,41,21,0.00,40.00,14,7,26,0.00
2012-11-2,49,38,31,19,13,9,51,37,21,0.00,40.00,12,6,26,0.00
2012-11-3,51,36,24,19,15,12,64,43,23,0.00,40.00,14,7,25,0.00
2012-11-4,48,36,26,21,18,15,65,50,33,0.00,40.00,14,6,24,0.00
2012-11-5,50,39,30,26,24,20,73,55,37,0.00,40.00,14,6,24,0.00
2012-11-6,54,38,28,27,20,15,81,53,22,0.00,40.00,12,6,20,0.00
2012-11-7,57,40,28,21,16,12,63,42,19,0.00,40.00,13,7,23,0.00
2012-11-8,58,42,29,19,11,0,57,33,10,0.00,40.00,17,7,28,0.00
2012-11-9,52,41,28,27,18,8,70,41,23,0.00,40.00,16,6,29,0.00
2012-11-10,38,23,13,29,18,9,96,84,38,0.00,40.00,16,9,28,0.00
2012-11-11,14,10,8,9,6,4,88,84,79,0.00,40.00,15,9,28,0.00
2012-11-12,28,14,2,17,7,-2,84,73,49,0.00,40.00,12,6,18,0.18
2012-11-13,33,22,15,18,14,10,83,72,52,0.00,40.00,9,5,13,0.15
2012-11-14,39,27,15,18,15,11,83,62,40,0.00,40.00,11,6,17,0.00
2012-11-15,42,30,20,19,15,12,74,57,35,0.00,40.00,11,5,17,0.00
2012-11-16,43,31,18,20,14,10,74,52,29,0.00,40.00,10,6,19,0.00
2012-11-17,46,35,28,31,26,20,98,72,45,0.00,40.00,9,5,17,0.02
2012-11-18,40,31,25,31,26,21,97,83,70,0.00,40.00,9,4,17,0.05
2012-11-19,42,32,25,28,25,19,98,75,50,0.00,40.00,12,5,19,0.01
2012-11-20,46,32,21,20,17,14,83,58,30,0.00,40.00,12,7,21,0.01
2012-11-21,50,35,24,19,12,9,66,40,19,0.00,40.00,15,6,20,0.00
2012-11-22,45,34,27,20,14,9,65,44,29,0.00,40.00,16,6,28,0.00
2012-11-23,45,31,20,17,14,11,75,52,27,0.00,40.00,10,5,16,0.00
2012-11-24,49,33,23,13,10,7,59,41,20,0.00,40.00,17,7,30,0.00
2012-11-25,45,33,22,12,9,7,56,39,21,0.00,40.00,22,10,35,0.00
2012-11-26,31,26,23,13,12,11,62,53,43,0.00,40.00,5,2,8,0.00
2012-11-27,43,28,17,7,1,-6,55,33,15,0.00,40.00,15,7,28,0.00
2012-11-28,43,28,18,11,6,0,57,41,23,0.00,40.00,11,6,16,0.00
2012-11-29,45,34,24,20,16,10,71,50,34,0.00,40.00,15,7,25,0.00
2012-11-30,46,33,22,22,19,17,81,58,37,0.00,40.00,12,5,20,0.00
2012-12-1,46,37,28,24,22,18,72,55,34,0.00,40.00,17,8,29,0.00
2012-12-2,47,32,21,20,15,7,75,52,25,0.00,40.00,15,5,23,0.00
2012-12-3,37,30,21,31,22,9,99,73,39,0.00,40.00,17,7,25,0.09
2012-12-4,36,26,14,14,11,8,87,56,36,0.00,40.00,11,5,15,0.01
2012-12-5,47,33,24,28,21,12,88,63,28,0.00,40.00,17,7,29,0.00
2012-12-6,36,29,25,31,23,-100,97,85,75,0.00,40.00,7,3,12,0.06
2012-12-7,30,28,24,25,22,19,93,79,63,0.00,40.00,14,9,28,0.01
2012-12-8,28,25,22,20,15,6,83,65,51,0.00,40.00,19,10,36,0.00
2012-12-9,10,5,-5,6,0,-12,86,80,74,0.00,40.00,11,4,18,0.00
2012-12-10,12,9,-6,8,5,-12,87,84,76,0.00,40.00,12,5,20,0.00
2012-12-11,20,12,8,13,8,4,86,83,72,0.00,40.00,10,4,17,0.15
2012-12-12,34,20,7,19,11,4,88,69,47,0.00,40.00,10,6,18,0.04
2012-12-13,43,26,16,18,12,8,78,57,27,0.00,40.00,12,6,21,0.05
2012-12-14,34,26,20,24,15,8,96,65,50,0.00,40.00,13,8,22,0.01
2012-12-15,26,22,18,23,20,16,96,91,79,0.00,40.00,9,4,18,0.02
2012-12-16,19,17,15,16,15,11,92,89,79,0.00,40.00,16,10,30,0.02
2012-12-17,23,19,15,19,15,9,89,83,71,0.00,40.00,19,13,32,0.00
2012-12-18,28,23,21,21,19,14,94,84,66,0.00,40.00,16,7,27,0.02
2012-12-19,24,10,-5,17,4,-14,90,77,63,0.00,40.00,16,9,37,0.02
2012-12-20,24,4,-12,8,-6,-19,79,66,48,0.00,40.00,11,6,14,0.09
2012-12-21,42,19,7,14,6,2,80,61,23,0.00,40.00,9,5,16,0.06
2012-12-22,37,21,11,9,4,-7,71,49,26,0.00,40.00,8,5,15,0.02
2012-12-23,28,22,16,20,8,-7,83,56,28,0.00,40.00,10,4,17,0.00
2012-12-24,28,21,16,21,16,8,94,81,64,0.00,40.00,8,4,13,0.00
2012-12-25,19,13,3,17,9,-1,93,84,73,0.00,40.00,10,7,15,0.03
2012-12-26,25,13,2,15,8,-2,91,80,66,0.00,40.00,12,6,21,0.01
2012-12-27,19,14,9,13,10,3,90,83,61,0.00,40.00,14,9,23,0.01
2012-12-28,14,7,1,6,2,-5,87,80,58,0.00,40.00,11,5,18,0.00
2012-12-29,15,6,-6,3,-3,-12,80,68,53,0.00,40.00,9,5,15,0.01
2012-12-30,28,15,5,8,3,-2,76,61,35,0.00,40.00,8,4,12,0.09
2012-12-31,21,13,5,11,6,0,86,73,57,0.00,40.00,12,6,17,0.01
2013-1-1,15,6,0,3,-2,-5,84,72,51,0.00,40.00,10,4,17,0.00